Location: ????? ??????? ??????
(55.8992°N, 38.8084°E)
Time: 18:08:41
(UTC+00:00)

Daily predictions for brighter satellites

Satellite Brightness Start Highest point End
(mag) Time Altitude Azimuth Time Altitude Azimuth Time Altitude Azimuth
Cosmos 1553 Rocket 4.2 18:50:11 10° N 18:56:28 68° ENE 19:02:36 10° SSE
Cosmos 1867 4.1 18:52:13 10° NW 18:57:32 53° SW 19:02:49 10° SSE
Cosmos 2369 Rocket 2.3 18:52:20 10° SSW 18:57:54 63° ESE 19:03:29 10° NE
ATLAS CENTAUR R/B 2.4 18:57:06 10° S 19:00:44 27° ESE 19:04:13 10° ENE
STARLINK-1241 3.8 18:57:02 10° W 19:01:07 57° S 19:05:11 10° ESE
Okean 2 3.5 18:57:38 10° S 19:01:48 88° W 19:06:01 10° NNE
SJ 16-02 3.7 18:59:10 10° N 19:02:04 17° NE 19:04:58 10° E
CARTOSAT-1 3.9 18:58:12 10° S 19:02:30 68° WSW 19:06:50 10° NNW
Cosmos 1461 4.3 18:58:20 10° WSW 19:02:30 47° NNW 19:06:54 10° NE
STARLINK-1238 4.4 18:59:40 10° W 19:03:31 37° SSW 19:07:20 10° SE
STARLINK-1239 3.8 19:02:01 10° W 19:06:06 56° S 19:10:09 10° ESE
STARLINK-1201 4.4 19:04:39 10° W 19:08:28 35° SSW 19:12:15 10° SE
STARLINK-1240 3.8 19:06:57 10° W 19:11:01 55° S 19:15:05 10° ESE
STARLINK-1206 4.5 19:09:37 10° W 19:13:23 34° SSW 19:17:09 10° SE
Cosmos 1777 Rocket 4.4 19:08:30 10° NNW 19:13:42 58° NE 19:18:53 10° SE
CENTAUR R/B 3.8 19:07:38 10° NW 19:15:03 46° WSW 19:23:12 10° SSE
STARLINK-1216 3.8 19:11:57 10° W 19:16:00 54° S 19:20:03 10° ESE
Resurs 01 Rocket 4.2 19:16:03 10° WSW 19:18:44 16° W 19:21:26 10° NW
USA 215 3.4 19:14:12 10° E 19:20:47 85° N 19:27:22 10° WNW
STARLINK-1237 3.8 19:16:55 10° W 19:20:58 53° S 19:25:00 10° ESE
Cosmos 1908 4.4 19:19:09 10° N 19:22:38 31° ENE 19:26:05 10° SE
Cosmos 1536 Rocket 4.0 19:19:20 10° SSE 19:23:31 47° E 19:27:45 10° NNE
ATLAS 3B R/B 2.9 19:17:11 10° NW 19:23:50 62° SW 19:30:41 10° SSE
Cosmos 1544 Rocket 4.0 19:19:57 10° NNW 19:24:13 59° W 19:28:31 10° S
SPOT 5 3.7 19:19:50 10° S 19:25:04 54° W 19:30:21 10° NNW
STARLINK-1202 3.8 19:21:54 10° W 19:25:57 52° S 19:29:58 10° ESE
Cosmos 2292 Rocket 4.4 19:25:06 10° SE 19:27:33 20° E 19:29:51 10° NE
STARLINK-52 3.8 19:25:59 10° SW 19:28:49 28° SSE 19:31:38 10° E
Terra 2.2 19:24:30 10° S 19:29:13 61° WSW 19:33:58 10° NNW
STARLINK-1203 3.8 19:26:15 10° W 19:30:15 51° SSW 19:34:15 10° ESE
Cosmos 1655 Rocket 4.3 19:24:54 10° S 19:30:58 56° E 19:37:08 10° NNE
NOSS 2-2 (D) 4.1 19:27:25 10° WSW 19:31:09 60° NNW 19:35:45 10° NE
EXPRESS MD2 4.3 19:30:10 10° WSW 19:33:51 45° S 19:40:59 10° ESE
STARLINK-1246 3.9 19:31:51 10° W 19:35:52 50° SSW 19:39:53 10° ESE
Cosmos 1726 2.1 19:32:51 10° N 19:36:37 81° ENE 19:40:12 11° SSE
Meteor 2-10 4.0 19:34:33 10° NNW 19:39:37 79° W 19:44:41 10° S
STARLINK-1224 3.9 19:36:48 10° W 19:40:49 49° SSW 19:44:50 10° ESE
APEX 4.1 19:37:00 10° SW 19:42:57 87° NW 19:47:41 10° NE
Cosmos 1470 3.8 19:39:50 10° NNW 19:43:28 39° W 19:47:04 10° SSW
SeaSat 1 4.1 19:41:29 10° ENE 19:44:51 18° ESE 19:48:02 11° SE
STARLINK-1225 3.9 19:41:47 10° W 19:45:47 47° SSW 19:49:47 10° ESE
Cosmos 1674 3.9 19:43:49 11° SSE 19:46:52 29° E 19:50:13 10° NNE
COSMOS 2455 3.0 19:43:55 10° SSW 19:49:46 55° ESE 19:55:39 10° NE
Cosmos 1606 Rocket 3.9 19:45:56 10° N 19:50:14 55° ENE 19:54:11 12° SSE
STARLINK-1444 2.8 19:48:46 10° SW 19:50:41 29° SSE 19:52:38 10° ESE
STARLINK-1230 4.0 19:46:45 10° W 19:50:43 46° SSW 19:54:42 10° ESE
Cosmos 1174 3.8 19:47:46 10° SSW 19:51:04 51° SE 19:55:04 10° NE
Cosmos 2058 Rocket 4.2 19:47:01 10° N 19:51:08 34° ENE 19:55:14 10° SE
STARLINK-1452 2.7 19:49:25 10° SW 19:51:18 29° SSE 19:53:15 10° ESE
NOSS 3-4 (A) 3.5 19:45:45 10° SSW 19:51:40 65° SE 19:58:07 10° NE
NOSS 3-4 (C) 3.5 19:45:50 10° SSW 19:51:47 65° SE 19:58:14 10° NE
STARLINK-1392 2.7 19:50:23 10° SW 19:52:14 28° SSE 19:54:07 10° ESE
STARLINK-1399 2.7 19:50:24 10° SW 19:52:15 28° SSE 19:54:09 10° ESE
STARLINK-1393 2.7 19:50:26 10° SW 19:52:17 28° SSE 19:54:11 10° ESE
STARLINK-1394 2.7 19:50:27 10° SW 19:52:18 28° SSE 19:54:11 10° ESE
STARLINK-1395 2.7 19:50:32 10° SW 19:52:21 28° SSE 19:54:12 10° ESE
STARLINK-1397 2.7 19:50:29 10° SW 19:52:21 28° SSE 19:54:15 10° ESE
STARLINK-1396 2.7 19:50:30 10° SW 19:52:21 28° SSE 19:54:15 10° ESE
STARLINK-1414 2.7 19:50:31 10° SW 19:52:21 28° SSE 19:54:15 10° ESE
STARLINK-1408 2.7 19:50:34 10° SW 19:52:24 28° SSE 19:54:17 10° ESE
STARLINK-1404 2.7 19:50:34 10° SW 19:52:25 28° SSE 19:54:19 10° ESE
STARLINK-1416 2.7 19:50:35 10° SW 19:52:25 28° SSE 19:54:19 10° ESE
STARLINK-1415 2.7 19:50:35 10° SW 19:52:27 28° SSE 19:54:21 10° ESE
STARLINK-1450 2.7 19:50:35 10° SW 19:52:27 28° SSE 19:54:21 10° ESE
STARLINK-1401 2.7 19:50:38 10° SW 19:52:30 28° SSE 19:54:24 10° ESE
STARLINK-1406 2.7 19:50:40 10° SW 19:52:30 28° SSE 19:54:23 10° ESE
STARLINK-1417 2.7 19:50:41 10° SW 19:52:33 28° SSE 19:54:28 10° ESE
STARLINK-1419 2.7 19:50:43 10° SW 19:52:33 28° SSE 19:54:28 10° ESE
STARLINK-1402 2.7 19:50:42 10° SW 19:52:34 28° SSE 19:54:28 10° ESE
STARLINK-1413 2.7 19:50:42 10° SW 19:52:34 28° SSE 19:54:29 10° ESE
STARLINK-1422 2.7 19:50:48 10° SW 19:52:39 28° SSE 19:54:34 10° ESE
STARLINK-1453 2.7 19:50:48 10° SW 19:52:40 29° SSE 19:54:35 10° ESE
STARLINK-1398 2.7 19:50:48 10° SW 19:52:41 29° SSE 19:54:37 10° ESE
STARLINK-1440 2.7 19:50:49 10° SW 19:52:41 28° SSE 19:54:36 10° ESE
STARLINK-1436 (VISORSAT) 2.7 19:50:48 10° SW 19:52:42 29° SSE 19:54:38 10° ESE
STARLINK-1420 2.7 19:50:50 10° SW 19:52:42 28° SSE 19:54:37 10° ESE
Cosmos 1340 Rocket 3.0 19:48:40 10° NNW 19:52:44 69° W 19:56:34 11° S
STARLINK-1460 2.7 19:50:52 10° SW 19:52:45 28° SSE 19:54:40 10° ESE
STARLINK-1410 2.7 19:50:58 10° SW 19:52:50 28° SSE 19:54:44 10° ESE
STARLINK-1423 2.7 19:50:59 10° SW 19:52:50 28° SSE 19:54:44 10° ESE
STARLINK-1421 2.7 19:50:59 10° SW 19:52:50 28° SSE 19:54:45 10° ESE
STARLINK-1400 2.7 19:50:58 10° SW 19:52:51 28° SSE 19:54:46 10° ESE
STARLINK-1454 2.7 19:50:58 10° SW 19:52:51 28° SSE 19:54:46 10° ESE
STARLINK-1458 2.7 19:51:00 10° SW 19:52:52 28° SSE 19:54:47 10° ESE
STARLINK-1445 2.7 19:51:02 10° SW 19:52:55 29° SSE 19:54:50 10° ESE
STARLINK-1446 2.7 19:51:04 10° SW 19:52:57 29° SSE 19:54:53 10° ESE
STARLINK-1407 2.7 19:51:04 10° SW 19:52:57 29° SSE 19:54:53 10° ESE
STARLINK-1405 2.7 19:51:09 10° SW 19:52:58 28° SSE 19:54:51 10° ESE
STARLINK-1451 2.7 19:51:08 10° SW 19:53:00 28° SSE 19:54:55 10° ESE
STARLINK-1456 2.7 19:51:08 10° SW 19:53:00 28° SSE 19:54:55 10° ESE
STARLINK-1457 2.7 19:51:08 10° SW 19:53:00 28° SSE 19:54:55 10° ESE
STARLINK-1370 2.7 19:51:07 10° SW 19:53:00 29° SSE 19:54:55 10° ESE
STARLINK-1439 2.7 19:51:12 10° SW 19:53:01 28° SSE 19:54:53 10° ESE
STARLINK-1437 2.7 19:51:09 10° SW 19:53:01 28° SSE 19:54:55 10° ESE
STARLINK-1455 2.7 19:51:09 10° SW 19:53:02 29° SSE 19:54:56 10° ESE
STARLINK-1409 2.7 19:51:09 10° SW 19:53:02 28° SSE 19:54:55 10° ESE
STARLINK-1447 2.7 19:51:09 10° SW 19:53:02 29° SSE 19:54:56 10° ESE
STARLINK-1441 2.7 19:51:11 10° SW 19:53:03 29° SSE 19:54:58 10° ESE
STARLINK-1443 2.7 19:51:13 10° SW 19:53:06 29° SSE 19:55:01 10° ESE
STARLINK-1351 2.7 19:51:15 10° SW 19:53:08 29° SSE 19:55:03 10° ESE
STARLINK-1418 2.7 19:51:16 10° SW 19:53:08 29° SSE 19:55:03 10° ESE
STARLINK-1442 2.7 19:51:16 10° SW 19:53:08 29° SSE 19:55:03 10° ESE
STARLINK-1434 2.7 19:51:16 10° SW 19:53:09 29° SSE 19:55:04 10° ESE
STARLINK-1403 2.7 19:51:16 10° SW 19:53:09 29° SSE 19:55:04 10° ESE
STARLINK-1448 2.7 19:51:18 10° SW 19:53:10 29° SSE 19:55:05 10° ESE
STARLINK-1433 2.7 19:51:19 10° SW 19:53:12 29° SSE 19:55:06 10° ESE
STARLINK-1449 2.7 19:51:20 10° SW 19:53:13 29° SSE 19:55:08 10° ESE
STARLINK-1438 2.7 19:51:24 10° SW 19:53:15 28° SSE 19:55:10 10° ESE
STARLINK-1411 2.7 19:51:29 10° SW 19:53:22 29° SSE 19:55:17 10° ESE
STARLINK-1412 2.7 19:51:29 10° SW 19:53:22 29° SSE 19:55:17 10° ESE
FALCON 9 DEB 3.9 19:51:25 10° SW 19:54:29 31° SSE 19:57:34 10° E
STARLINK-1243 4.0 19:51:45 10° W 19:55:43 45° SSW 19:59:41 10° SE
STARLINK-60 3.1 19:53:35 10° WSW 19:56:39 46° S 19:59:43 10° E
Cosmos 2263 Rocket 4.5 19:53:59 10° NNW 19:58:22 23° NNE 20:02:44 10° ENE
Aureole 3 2.6 19:55:35 10° NNW 19:58:43 86° ENE 20:01:10 14° SSE
Cosmos 1025 Rocket 3.2 19:54:30 10° SSW 19:58:47 77° WNW 20:03:10 10° N
Cosmos 2263 4.4 19:53:42 10° SW 19:59:19 76° NW 20:04:59 10° NNE
COSMOS 2487 3.9 19:56:40 10° NW 19:59:42 29° WSW 20:02:43 10° SSW
STARLINK-1236 4.0 19:56:42 10° W 20:00:39 43° SSW 20:04:36 10° SE
Cosmos 2297 Rocket 2.5 19:57:46 10° NNW 20:03:25 65° NE 20:09:03 10° SE
CZ-4C R/B 4.1 20:02:33 10° ESE 20:03:53 11° ESE 20:05:17 10° E
ALOS 2 3.2 19:59:48 11° SE 20:03:53 49° ENE 20:08:08 10° N
STARLINK-1368 4.5 20:01:23 10° SSW 20:04:45 26° SSE 20:08:08 10° E
Cosmos 1943 Rocket 3.4 20:01:22 10° WSW 20:06:44 46° NW 20:12:10 10° NNE
Cosmos 2219 3.3 20:01:27 10° NNW 20:07:11 77° NE 20:12:46 10° SE
MTI 4.4 20:04:16 10° N 20:07:22 53° WNW 20:10:25 10° SSW
Cosmos 1953 3.0 20:04:05 10° NNW 20:07:56 47° W 20:11:39 11° SSW
STARLINK-1369 4.4 20:05:23 10° SSW 20:08:46 27° SSE 20:12:09 10° E
Cosmos 1992 Rocket 4.3 20:05:09 10° SW 20:10:21 72° WNW 20:15:36 10° NNE
STARLINK-1269 4.1 20:06:40 10° W 20:10:34 40° SSW 20:14:28 10° SE
RESURS DK-1 2.8 20:06:49 11° S 20:10:38 43° ESE 20:14:35 10° NE
ERBS 2.2 20:09:21 10° WNW 20:12:40 68° SSW 20:15:59 10° ESE
Cosmos 1271 Rocket 3.8 20:09:18 10° SW 20:13:06 45° WNW 20:16:58 10° N
STARLINK-1372 4.4 20:09:43 10° SSW 20:13:09 28° SSE 20:16:35 10° E
Lacrosse 4 Rocket 2.3 20:09:06 10° NW 20:13:22 49° NE 20:17:30 10° ESE
Cosmos 2228 3.0 20:09:19 10° N 20:13:36 84° E 20:17:13 14° SSE
Cosmos 1626 3.7 20:11:46 12° SE 20:14:24 23° E 20:17:24 10° NE
Spot 4 3.9 20:10:56 13° SSE 20:15:18 79° WSW 20:20:11 10° NNW
STARLINK-1200 4.2 20:11:39 10° W 20:15:31 39° SSW 20:19:21 10° SE
STARLINK-1378 4.3 20:14:01 10° SW 20:17:30 29° SSE 20:21:00 10° E
Cosmos 2082 4.5 20:12:09 10° NNW 20:17:41 50° NE 20:23:08 10° ESE
Cosmos 921 Rocket 4.0 20:16:00 14° SSE 20:19:11 33° ESE 20:23:09 10° NE
Timation 2 Rocket 4.3 20:13:22 10° NW 20:19:33 56° WSW 20:24:49 13° SSE
ATLAS 2AS CENTAUR R/B 3.1 20:11:59 10° SW 20:20:02 88° SE 20:27:55 10° NE
STARLINK-1192 4.2 20:16:38 10° W 20:20:30 37° SSW 20:24:09 11° SE
SL-4 R/B 2.6 20:15:52 10° WSW 20:20:32 51° S 20:25:14 10° E
STARLINK-1379 4.3 20:18:24 10° SW 20:21:56 31° SSE 20:25:28 10° E
Cosmos 1707 3.8 20:21:13 10° SW 20:24:56 42° WNW 20:28:39 10° N
STARLINK-1244 4.3 20:21:36 10° W 20:25:25 36° SSW 20:28:54 12° SE
STARLINK-1329 4.2 20:22:02 10° SW 20:25:36 32° SSE 20:29:11 10° E
Cosmos 1656 Rocket 4.0 20:20:13 10° SW 20:25:48 68° NW 20:31:21 10° NNE
EO 1 Del DPAF 3.2 20:22:48 10° NNE 20:26:36 78° ESE 20:29:56 13° SSW
STARLINK-29 3.2 20:26:11 10° WSW 20:29:18 46° S 20:32:24 10° E
STARLINK-1362 4.2 20:26:27 10° SW 20:30:03 33° SSE 20:33:41 10° E
STARLINK-1138 4.3 20:26:35 10° W 20:30:22 34° SSW 20:33:40 13° SE
Cosmos 1726 Rocket 3.6 20:29:12 10° NNW 20:33:33 78° W 20:37:07 15° S
STARLINK-1373 4.1 20:30:53 10° SW 20:34:31 34° SSE 20:38:11 10° E
SL-4 R/B 0.3 20:33:59 23° SSE 20:35:09 88° WSW 20:37:20 10° NNW
STARLINK-1143 4.4 20:31:36 10° W 20:35:20 33° SSW 20:38:28 13° SE
Okean 1-7 Rocket 4.2 20:32:29 15° SSE 20:36:01 45° E 20:40:23 10° NNE
Cosmos 2315 Rocket 4.2 20:29:56 10° NNW 20:36:07 69° W 20:41:41 13° S
Helios 1A 3.4 20:34:19 13° SE 20:37:58 57° ENE 20:42:05 10° N
Cosmos 2098 Rocket 4.4 20:31:46 11° S 20:38:55 84° E 20:46:11 10° NNE
STARLINK-1390 4.1 20:35:19 10° SW 20:39:00 36° SSE 20:42:42 10° E
ATLAS CENTAUR R/B 1.7 20:35:11 10° WSW 20:39:25 67° NW 20:43:24 10° NE
STARLINK-1241 4.4 20:36:36 10° W 20:40:17 32° SSW 20:43:15 14° SSE
Cosmos 1892 Rocket 3.8 20:37:21 15° S 20:40:49 57° E 20:45:06 10° NNE
Cosmos 2227 Rocket 2.2 20:35:32 10° NW 20:41:16 88° SW 20:46:35 12° SSE
SJ 16-02 1.6 20:37:06 10° NNW 20:41:32 67° ENE 20:45:35 12° SE
Cosmos 2369 Rocket 3.7 20:37:00 10° WSW 20:42:17 39° NW 20:47:34 10° NNE
STARLINK-1365 4.0 20:40:53 10° SW 20:44:39 38° SSE 20:48:25 10° E
STARLINK-1320 3.5 20:42:09 10° SW 20:45:02 34° SSE 20:47:55 10° E
STARLINK-1239 4.5 20:41:35 10° W 20:45:14 30° SSW 20:48:03 15° SSE
STARLINK-1322 3.5 20:42:30 10° SW 20:45:23 34° SSE 20:48:16 10° E
STARLINK-1324 3.5 20:42:48 10° SW 20:45:41 34° SSE 20:48:33 10° E
STARLINK-1294 3.5 20:43:07 10° SW 20:46:00 34° SSE 20:48:54 10° E
STARLINK-1261 3.5 20:43:30 10° SW 20:46:23 34° SSE 20:49:16 10° E
STARLINK-1325 3.5 20:43:51 10° SW 20:46:44 35° SSE 20:49:37 10° E
STARLINK-1333 3.4 20:44:13 10° SW 20:47:06 35° SSE 20:49:59 10° E
STARLINK-1334 3.4 20:44:30 10° SW 20:47:23 35° SSE 20:50:16 10° E
STARLINK-1326 3.4 20:44:49 10° SW 20:47:43 35° SSE 20:50:36 10° E
STARLINK-1323 3.4 20:45:12 10° SW 20:48:05 35° SSE 20:50:59 10° E
STARLINK-1349 3.4 20:45:28 10° SW 20:48:22 35° SSE 20:51:15 10° E
STARLINK-1336 3.4 20:45:49 10° SW 20:48:43 35° SSE 20:51:36 10° E
STARLINK-1331 3.4 20:46:11 10° SW 20:49:05 35° SSE 20:51:58 10° E
STARLINK-1344 3.4 20:46:30 10° SW 20:49:24 35° SSE 20:52:17 10° E
STARLINK-1343 3.4 20:46:52 10° SW 20:49:45 35° SSE 20:52:40 10° E
STARLINK-1346 3.4 20:47:08 10° SW 20:50:04 36° SSE 20:53:00 10° E
Nadezhda 1 Rocket 4.4 20:44:13 10° N 20:50:23 59° ENE 20:56:15 12° SSE
STARLINK-1328 3.4 20:47:34 10° SW 20:50:28 35° SSE 20:53:22 10° E
STARLINK-1354 3.4 20:47:52 10° SW 20:50:46 36° SSE 20:53:40 10° E
STARLINK-1347 3.4 20:48:10 10° SW 20:51:04 36° SSE 20:53:59 10° E
STARLINK-1357 3.4 20:48:34 10° SW 20:51:28 36° SSE 20:54:23 10° E
STARLINK-1335 3.4 20:48:52 10° SW 20:51:46 36° SSE 20:54:40 10° E
STARLINK-1327 3.4 20:49:13 10° SW 20:52:06 36° SSE 20:55:01 10° E
STARLINK-1340 3.4 20:49:31 10° SW 20:52:25 36° SSE 20:55:20 10° E
STARLINK-1356 3.4 20:49:53 10° SW 20:52:48 36° SSE 20:55:43 10° E
STARLINK-1345 3.4 20:50:12 10° SW 20:53:06 36° SSE 20:56:01 10° E
Cosmos 1437 3.5 20:51:29 18° SSE 20:53:17 36° E 20:56:06 10° NNE
STARLINK-1355 3.4 20:50:33 10° SW 20:53:27 36° SSE 20:56:22 10° E
STARLINK-1321 3.4 20:50:53 10° SW 20:53:48 36° SSE 20:56:43 10° E
STARLINK-1358 3.4 20:51:16 10° SW 20:54:11 36° SSE 20:57:06 10° E
STARLINK-1332 3.4 20:51:33 10° SW 20:54:28 37° SSE 20:57:23 10° E
STARLINK-1348 3.4 20:51:53 10° SW 20:54:48 37° SSE 20:57:43 10° E
STARLINK-1330 3.4 20:52:14 10° SW 20:55:08 37° SSE 20:58:04 10° E
STARLINK-1363 3.4 20:52:32 10° SW 20:55:27 37° SSE 20:58:23 10° E
STARLINK-1337 3.4 20:52:55 10° SW 20:55:50 37° SSE 20:58:46 10° E
Cosmos 2084 Rocket 3.6 20:51:39 10° NW 20:56:07 82° NE 21:00:37 10° ESE
STARLINK-1342 3.4 20:53:14 10° SW 20:56:10 37° SSE 20:59:05 10° E
STARLINK-1338 3.9 20:52:28 10° SW 20:56:12 40° SSE 20:59:57 10° E
STARLINK-1364 3.4 20:53:34 10° SW 20:56:29 37° SSE 20:59:25 10° E
STARLINK-1376 3.3 20:53:54 10° SW 20:56:50 37° SSE 20:59:45 10° E
STARLINK-1360 3.3 20:54:14 10° SW 20:57:10 37° SSE 21:00:06 10° E
STARLINK-1361 3.3 20:54:36 10° SW 20:57:31 37° SSE 21:00:27 10° E
STARLINK-1367 3.4 20:54:51 10° SW 20:57:48 38° SSE 21:00:45 10° E
STARLINK-1366 3.3 20:55:14 10° SW 20:58:09 38° SSE 21:01:06 10° E
Cosmos 1356 Rocket 3.5 20:53:57 10° NNW 20:58:12 77° ENE 21:01:39 15° SSE
Cosmos 2084 3.5 20:58:29 10° SW 21:02:57 82° SE 21:07:27 10° NE
Thor Agena Rocket 4.1 20:58:15 10° NNE 21:03:28 60° WNW 21:08:36 10° SW
SL-14 R/B 3.3 21:00:56 17° S 21:03:48 68° E 21:07:39 10° NNE
STARLINK-1371 3.8 21:00:18 10° SW 21:04:02 42° SSE 21:07:47 10° E
USA 215 3.3 20:57:31 10° SE 21:04:03 65° SSW 21:10:34 10° WNW
STARLINK-52 3.1 21:01:27 10° WSW 21:04:35 50° S 21:07:43 10° E
ATLAS CENTAUR R/B 1.9 21:03:32 10° W 21:05:24 27° SSW 21:06:48 18° SSE
Terra 4.3 21:06:40 10° W 21:07:59 11° W 21:09:19 10° WNW
Meteor 2-10 Rocket 4.1 21:03:03 10° N 21:08:08 50° ENE 21:13:01 10° SE
STARLINK-1341 3.8 21:04:31 10° SW 21:08:15 43° SSE 21:12:01 10° E
Meteor 2-5 Rocket 3.8 21:03:44 13° SSW 21:08:48 84° WNW 21:14:34 10° NNE
BREEZE-M DEB 4.5 21:06:33 10° WSW 21:10:37 52° S 21:25:33 10° ESE
Cosmos 1300 2.9 21:07:42 10° NNW 21:11:29 60° W 21:14:16 17° S
STARLINK-1374 3.8 21:09:18 10° WSW 21:13:06 45° SSE 21:16:56 10° E
ATLAS 3B R/B 4.4 21:09:00 10° WNW 21:13:22 18° WSW 21:17:48 10° SSW
Cosmos-2242 4.4 21:12:29 10° N 21:16:22 33° ENE 21:20:14 10° SE
Cosmos 2292 4.2 21:13:18 10° NNW 21:16:35 85° W 21:18:35 19° S
STARLINK-1339 3.7 21:13:34 10° WSW 21:17:23 46° SSE 21:21:14 10° E
YAOGAN 11 4.1 21:16:52 16° S 21:20:17 78° WSW 21:24:37 10° NNW
STARLINK-1377 3.7 21:17:51 10° WSW 21:21:42 48° SSE 21:25:33 10° E
Cosmos 1674 4.1 21:18:53 10° SW 21:22:21 33° WNW 21:25:52 10° N
SeaSat 1 2.4 21:18:05 10° NE 21:23:04 81° ESE 21:27:49 11° SSW
Uosat 12 SS-18 rocket 4.0 21:19:27 10° NW 21:23:45 67° SW 21:28:08 10° SE
Cosmos 1626 Rocket 3.9 21:20:27 16° S 21:23:46 56° E 21:28:05 10° NNE
STARLINK-1444 2.5 21:22:17 10° WSW 21:24:18 34° S 21:26:22 10° ESE
STARLINK-1452 2.5 21:22:55 10° WSW 21:24:55 34° S 21:26:52 11° ESE
STARLINK-1392 2.5 21:23:51 10° WSW 21:25:47 33° S 21:26:59 18° SE
STARLINK-1399 2.5 21:23:51 10° WSW 21:25:49 33° S 21:27:09 16° SE
STARLINK-1393 2.5 21:23:53 10° WSW 21:25:51 33° S 21:27:07 17° SE
STARLINK-1394 2.5 21:23:55 10° WSW 21:25:52 33° S 21:27:08 17° SE
STARLINK-1395 2.5 21:23:59 10° WSW 21:25:55 32° S 21:26:53 21° SE
STARLINK-1397 2.5 21:23:57 10° WSW 21:25:55 33° S 21:27:17 16° SE
STARLINK-1396 2.5 21:23:58 10° WSW 21:25:56 33° S 21:27:14 17° SE
STARLINK-1414 2.5 21:23:59 10° WSW 21:25:56 33° S 21:27:07 18° SE
STARLINK-1408 2.5 21:24:02 10° WSW 21:25:59 33° S 21:27:09 18° SE
STARLINK-1353 3.7 21:22:08 10° WSW 21:25:59 49° SSE 21:29:51 10° E
STARLINK-1416 2.5 21:24:04 10° WSW 21:26:00 33° S 21:27:14 18° SE
STARLINK-1404 2.5 21:24:02 10° WSW 21:26:00 33° S 21:27:20 16° SE
STARLINK-1415 2.5 21:24:04 10° WSW 21:26:01 33° S 21:27:29 15° SE
STARLINK-1450 2.5 21:24:05 10° WSW 21:26:02 33° S 21:27:31 15° SE
STARLINK-1406 2.5 21:24:08 10° WSW 21:26:04 33° S 21:27:12 19° SE
STARLINK-1401 2.5 21:24:07 10° WSW 21:26:05 33° S 21:27:32 15° SE
STARLINK-1417 2.5 21:24:10 10° WSW 21:26:08 33° S 21:27:36 15° SE
STARLINK-1402 2.5 21:24:11 10° WSW 21:26:09 33° S 21:27:36 15° SE
STARLINK-1413 2.5 21:24:11 10° WSW 21:26:09 33° S 21:27:37 15° SE
STARLINK-1419 2.5 21:24:12 10° WSW 21:26:09 33° S 21:27:30 16° SE
STARLINK-1422 2.5 21:24:17 10° WSW 21:26:15 33° S 21:27:40 15° SE
STARLINK-1453 2.5 21:24:17 10° WSW 21:26:15 33° S 21:27:50 14° SE
STARLINK-1398 2.5 21:24:18 10° WSW 21:26:17 33° S 21:28:02 12° ESE
STARLINK-1420 2.5 21:24:20 10° WSW 21:26:18 33° S 21:27:49 15° SE
STARLINK-1440 2.5 21:24:20 10° WSW 21:26:18 33° S 21:27:52 14° SE
STARLINK-1436 (VISORSAT) 2.5 21:24:20 10° WSW 21:26:20 33° S 21:28:06 12° ESE
STARLINK-1460 2.5 21:24:23 10° WSW 21:26:21 33° S 21:27:52 15° SE
STARLINK-1410 2.5 21:24:28 10° WSW 21:26:25 33° S 21:27:53 15° SE
STARLINK-1423 2.5 21:24:29 10° WSW 21:26:26 33° S 21:27:45 16° SE
STARLINK-1421 2.5 21:24:29 10° WSW 21:26:26 33° S 21:27:46 16° SE
STARLINK-1400 2.5 21:24:28 10° WSW 21:26:26 33° S 21:27:55 15° SE
STARLINK-1454 2.5 21:24:29 10° WSW 21:26:27 33° S 21:27:56 15° SE
STARLINK-1458 2.5 21:24:31 10° WSW 21:26:29 33° S 21:27:53 16° SE
STARLINK-1445 2.5 21:24:33 10° WSW 21:26:31 33° S 21:28:06 14° SE
STARLINK-1446 2.5 21:24:35 10° WSW 21:26:34 33° S 21:28:08 14° SE
STARLINK-1407 2.5 21:24:35 10° WSW 21:26:34 33° S 21:28:06 14° SE
STARLINK-1405 2.5 21:24:39 10° WSW 21:26:34 32° S 21:27:35 20° SE
STARLINK-1370 2.5 21:24:38 10° WSW 21:26:36 33° S 21:28:08 14° SE
STARLINK-1456 2.5 21:24:39 10° WSW 21:26:37 33° S 21:28:01 16° SE
STARLINK-1457 2.5 21:24:39 10° WSW 21:26:37 33° S 21:28:02 16° SE
STARLINK-1451 2.5 21:24:39 10° WSW 21:26:37 33° S 21:28:01 16° SE
STARLINK-1439 2.5 21:24:42 10° WSW 21:26:37 32° S 21:27:38 20° SE
STARLINK-1409 2.5 21:24:40 10° WSW 21:26:38 33° S 21:28:03 16° SE
STARLINK-1437 2.5 21:24:40 10° WSW 21:26:38 33° S 21:28:06 15° SE
STARLINK-1447 2.5 21:24:40 10° WSW 21:26:38 33° S 21:28:11 14° SE
STARLINK-1455 2.5 21:24:40 10° WSW 21:26:38 33° S 21:28:11 14° SE
STARLINK-1441 2.5 21:24:42 10° WSW 21:26:40 33° S 21:28:14 14° SE
STARLINK-1443 2.5 21:24:44 10° WSW 21:26:43 33° S 21:28:23 13° ESE
STARLINK-1351 2.5 21:24:46 10° WSW 21:26:45 33° S 21:28:19 14° SE
STARLINK-1418 2.5 21:24:46 10° WSW 21:26:45 33° S 21:28:18 14° SE
STARLINK-1442 2.5 21:24:47 10° WSW 21:26:45 33° S 21:28:20 14° SE
STARLINK-1403 2.5 21:24:47 10° WSW 21:26:46 33° S 21:28:23 14° SE
STARLINK-1434 2.5 21:24:47 10° WSW 21:26:46 33° S 21:28:25 13° SE
STARLINK-1448 2.5 21:24:49 10° WSW 21:26:47 33° S 21:28:20 14° SE
STARLINK-1433 2.5 21:24:50 10° WSW 21:26:49 33° S 21:28:21 14° SE
STARLINK-1449 2.5 21:24:52 10° WSW 21:26:50 33° S 21:28:26 14° SE
STARLINK-1438 2.5 21:24:55 10° WSW 21:26:53 33° S 21:28:16 16° SE
STARLINK-1412 2.5 21:25:02 10° WSW 21:27:00 33° S 21:28:34 14° SE
STARLINK-1411 2.5 21:25:02 10° WSW 21:27:00 33° S 21:28:29 15° SE
BREEZE-M DEB (TANK) 3.1 21:21:24 10° W 21:27:11 32° SSW 21:29:41 10° SE
Alouette 2 Rocket 4.3 21:23:24 10° NNW 21:28:53 56° ENE 21:32:40 11° SE
Cosmos 2058 Rocket 4.0 21:25:03 10° NNW 21:29:11 38° W 21:32:37 14° SSW
STARLINK-1375 3.7 21:26:26 10° WSW 21:30:19 50° SSE 21:34:12 10° E
BREEZE-M DEB (TANK) 2.8 21:27:37 10° SW 21:30:37 21° S 21:32:37 10° ESE
FALCON 9 DEB 3.2 21:27:48 10° WSW 21:31:10 52° S 21:34:33 10° E
Cosmos 1980 Rocket 3.7 21:28:20 11° SSE 21:32:27 23° ESE 21:36:48 10° NE
STARLINK-60 3.2 21:29:26 10° W 21:32:28 43° SSW 21:35:31 10° ESE
STARLINK-1350 3.6 21:30:44 10° WSW 21:34:37 51° SSE 21:38:30 10° E
Helios 1B rocket 3.3 21:30:45 10° NNE 21:34:39 38° E 21:37:45 15° SSE
COSMOS 2455 3.7 21:29:58 10° WSW 21:35:51 51° NW 21:41:46 10° NE
USA 229 DEB 4.1 21:29:36 10° NW 21:36:43 76° NNE 21:44:15 10° ESE
USA 229 4.1 21:29:43 10° NW 21:36:49 76° NNE 21:44:20 10° ESE
Cosmos 1745 Rocket 4.1 21:32:08 15° S 21:37:20 74° E 21:43:29 10° NNE
NOSS 3-1 (C) 4.1 21:30:34 10° NW 21:37:36 80° NE 21:45:54 10° ESE
Cosmos 468 Rocket 4.3 21:34:06 16° S 21:38:06 53° ESE 21:43:07 10° NE
STARLINK-1352 3.6 21:35:05 10° WSW 21:38:59 52° S 21:42:53 10° E
ALOS 2 4.0 21:37:12 13° SSW 21:40:27 27° W 21:44:15 10° NW
Cosmos 1937 Rocket 3.6 21:37:02 10° NNW 21:42:15 68° WSW 21:46:54 13° SSE
Cosmos 2369 4.4 21:38:14 15° S 21:42:33 41° ESE 21:47:50 10° NE
NOSS 3-4 (A) 4.3 21:36:45 10° W 21:42:49 55° NNW 21:49:28 10° ENE
NOSS 3-4 (C) 4.3 21:36:52 10° W 21:42:55 56° NNW 21:49:34 10° ENE
STARLINK-1368 3.6 21:39:28 10° WSW 21:43:22 53° S 21:47:17 10° E
Cosmos 2263 Rocket 2.9 21:38:00 10° NNW 21:43:33 55° NE 21:49:01 10° SE
NOSS 3-1 (A) 4.3 21:38:39 10° NW 21:45:36 71° NNE 21:53:48 10° ESE
Cosmos 1812 Rocket 3.6 21:41:56 10° NNW 21:46:24 73° W 21:49:56 16° S
Cosmos 2297 Rocket 3.2 21:42:13 10° NW 21:47:11 32° WSW 21:51:12 14° SSW
Cosmos 1455 2.2 21:43:28 10° N 21:47:14 79° ENE 21:50:17 15° SSE
STARLINK-1369 3.6 21:43:22 10° WSW 21:47:14 53° S 21:51:07 10° E
ATLAS 5 CENTAUR R/B 1.3 21:45:51 10° WSW 21:48:17 54° NNW 21:50:20 10° NE
Meteor 1-29 4.2 21:45:28 10° NNE 21:48:30 30° E 21:50:54 14° SSE
ERBS 3.8 21:46:04 10° W 21:48:32 19° SW 21:49:22 18° SSW
RESURS DK-1 3.8 21:44:53 10° WSW 21:48:45 37° NW 21:52:39 10° NNE
Cosmos 1626 3.1 21:46:19 12° SW 21:49:28 40° WNW 21:53:01 10° N
Meteor 1-24 Rocket 4.1 21:44:56 11° SSW 21:50:00 57° WNW 21:55:35 10° N
CZ-4C R/B 2.6 21:46:26 14° SSW 21:50:41 50° SE 21:56:42 10° NE
Cosmos 2219 4.5 21:46:13 10° NW 21:50:49 26° WSW 21:54:40 13° SSW
Cosmos 1898 Rocket 4.0 21:45:44 10° NW 21:50:50 46° WSW 21:54:58 15° S
Cosmos 1656 3.7 21:46:31 13° SSW 21:51:32 76° ESE 21:57:07 10° NE
STARLINK-1372 3.6 21:47:46 10° WSW 21:51:39 54° S 21:55:33 10° E
Lacrosse 4 Rocket 2.3 21:48:01 10° NW 21:51:58 35° WSW 21:54:47 16° S
STARLINK-43 4.4 21:52:11 17° SSW 21:54:10 27° SSE 21:57:19 10° E
Cosmos 372 Rocket 4.0 21:50:04 10° NNW 21:55:15 83° ENE 22:00:26 10° SSE
STARLINK-1378 3.6 21:52:09 10° WSW 21:56:03 55° S 21:59:57 10° E
Cosmos 921 Rocket 4.1 21:53:17 10° SW 21:57:24 41° WNW 22:01:39 10° NNE
Cosmos 1825 Rocket 4.4 21:54:25 13° SSE 21:58:01 42° E 22:02:09 10° NNE
Cosmos 1703 4.3 21:55:11 13° SSE 21:58:22 38° E 22:02:00 10° NNE
EO 1 Delta rocket 4.4 21:53:44 10° N 21:59:14 62° WNW 22:03:24 13° SSW
SL-4 R/B 2.7 21:55:19 10° W 21:59:55 44° SSW 22:04:27 10° SE
STARLINK-1379 3.6 21:56:36 10° WSW 22:00:31 56° S 22:04:26 10° E
Cosmos 1602 Rocket 3.5 21:58:15 16° SSW 22:01:43 85° WNW 22:06:06 10° NNE
Cosmos 2082 4.2 21:56:26 10° NW 22:01:47 44° WSW 22:06:20 14° S
PSLV R/B 3.7 21:58:04 10° NNE 22:02:34 71° ESE 22:06:05 15° S
STARLINK-1329 3.6 22:00:18 10° WSW 22:04:14 56° S 22:08:09 10° E
STARLINK-29 3.2 22:02:06 10° W 22:05:10 43° SSW 22:08:15 10° ESE
Cosmos 2181 Rocket 4.2 22:00:08 10° N 22:06:39 79° ENE 22:13:06 10° SSE
Cosmos 2150 Rocket 4.1 22:01:35 10° NNW 22:06:48 79° ENE 22:11:57 10° SSE
STARLINK-1362 3.6 22:04:46 10° WSW 22:08:42 57° S 22:12:39 10° E
Cosmos 2322 Rocket 4.4 22:09:03 10° ESE 22:11:32 13° E 22:14:02 10° ENE
ATLAS 2AS CENTAUR R/B 3.9 22:03:55 10° W 22:11:46 53° NNW 22:19:17 10° ENE
STARLINK-1373 3.6 22:09:14 10° WSW 22:13:10 57° S 22:17:07 10° E
Resurs 1-4 Rocket 3.6 22:12:42 10° NNE 22:17:15 28° E 22:21:46 10° SSE
STARLINK-1390 3.6 22:13:44 10° WSW 22:17:40 57° S 22:21:37 10° E
Cosmos 1697 Rocket 2.8 22:12:54 14° SSW 22:17:53 71° ESE 22:23:32 10° NE
STARLINK-33 4.4 22:17:24 17° S 22:18:23 19° SSE 22:20:41 10° ESE
ATLAS CENTAUR R/B 3.5 22:15:23 10° WNW 22:18:54 27° NNW 22:22:15 10° NE
Cosmos 2278 4.1 22:14:15 14° S 22:18:59 52° ESE 22:24:30 10° NE
SJ 16-02 3.0 22:16:22 10° NW 22:19:42 21° W 22:22:33 12° SW
BREEZE-M R/B 3.6 22:14:03 10° WSW 22:19:42 36° S 22:22:51 10° ESE
STARLINK-26 4.5 22:18:08 16° S 22:19:45 23° SSE 22:22:32 10° E
STARLINK-1320 3.0 22:17:31 10° WSW 22:20:33 49° S 22:23:35 10° ESE
Cosmos 1125 Rocket 3.8 22:15:36 10° NNW 22:20:50 69° ENE 22:26:02 10° SE
STARLINK-1322 3.0 22:17:52 10° WSW 22:20:55 49° S 22:23:56 10° ESE
STARLINK-1324 3.0 22:18:09 10° WSW 22:21:12 49° S 22:24:14 10° ESE
STARLINK-1294 3.0 22:18:29 10° WSW 22:21:32 49° S 22:24:35 10° ESE
STARLINK-1261 3.0 22:18:52 10° WSW 22:21:55 49° S 22:24:57 10° ESE
STARLINK-1325 3.0 22:19:13 10° WSW 22:22:16 49° S 22:25:18 10° ESE
STARLINK-1333 3.0 22:19:36 10° WSW 22:22:38 49° S 22:25:40 10° ESE
STARLINK-1334 3.0 22:19:52 10° WSW 22:22:54 49° S 22:25:56 10° ESE
Cosmos 841 Rocket 3.8 22:18:40 14° S 22:23:07 59° ESE 22:28:14 10° NNE
STARLINK-1326 3.0 22:20:12 10° WSW 22:23:14 49° S 22:26:16 10° ESE
STARLINK-1365 3.6 22:19:30 10° WSW 22:23:29 58° S 22:27:27 10° E
STARLINK-1323 3.0 22:20:35 10° WSW 22:23:36 49° S 22:26:39 10° ESE
STARLINK-1349 3.0 22:20:51 10° WSW 22:23:53 49° S 22:26:55 10° ESE
STARLINK-1336 3.0 22:21:12 10° W 22:24:14 49° S 22:27:17 10° ESE
Cosmos 2227 Rocket 3.7 22:20:27 10° NW 22:24:36 21° WSW 22:28:23 11° SW
STARLINK-1331 3.0 22:21:35 10° W 22:24:37 49° S 22:27:39 10° ESE
STARLINK-1344 3.0 22:21:53 10° W 22:24:55 49° S 22:27:57 10° ESE
STARLINK-1343 3.0 22:22:15 10° W 22:25:17 49° S 22:28:19 10° ESE
NOSS 7 (E) 4.2 22:22:47 14° SW 22:25:32 64° SE 22:28:34 10° NE
STARLINK-1346 3.0 22:22:32 10° W 22:25:35 49° S 22:28:39 10° ESE
Cosmos 1709 Rocket 4.0 22:20:26 13° S 22:25:58 90° ESE 22:32:14 10° NNE
STARLINK-1328 3.0 22:22:59 10° W 22:26:00 49° S 22:29:02 10° ESE
STARLINK-1354 3.0 22:23:15 10° W 22:26:18 49° S 22:29:20 10° ESE
STARLINK-1347 3.0 22:23:34 10° W 22:26:37 49° S 22:29:39 10° ESE
STARLINK-1357 3.0 22:23:58 10° W 22:27:01 49° S 22:30:03 10° ESE
STARLINK-1335 3.0 22:24:16 10° W 22:27:18 49° S 22:30:20 10° ESE
STARLINK-1327 3.0 22:24:37 10° W 22:27:39 49° S 22:30:41 10° ESE
STARLINK-1340 3.0 22:24:55 10° W 22:27:57 49° S 22:30:59 10° ESE
STARLINK-1356 3.0 22:25:18 10° W 22:28:20 49° S 22:31:22 10° ESE
STARLINK-1345 3.0 22:25:36 10° W 22:28:38 48° S 22:31:40 10° ESE
STARLINK-1355 3.0 22:25:57 10° W 22:29:00 48° S 22:32:02 10° ESE
Cosmos 1570 Rocket 4.1 22:24:29 14° SSW 22:29:07 72° ESE 22:34:23 10° NNE
STARLINK-1321 3.0 22:26:18 10° W 22:29:20 48° S 22:32:22 10° ESE
Cosmos 1400 Rocket 2.9 22:25:19 10° NNW 22:29:29 90° WSW 22:33:35 10° SSE
DELTA 2 DEB (DPAF) 4.2 22:25:04 10° SSE 22:29:33 89° ENE 22:34:03 10° NNW
STARLINK-1358 3.0 22:26:41 10° W 22:29:43 48° S 22:32:45 10° ESE
Meteor 1-27 4.5 22:24:24 10° NNW 22:30:00 70° ENE 22:35:34 10° SSE
STARLINK-1332 3.0 22:26:59 10° W 22:30:00 48° S 22:33:03 10° ESE
STARLINK-1348 3.0 22:27:18 10° W 22:30:20 48° S 22:33:22 10° ESE
Cosmos 1763 Rocket 3.5 22:25:57 12° SSW 22:30:39 79° WNW 22:35:46 10° NNE
STARLINK-1330 3.0 22:27:38 10° W 22:30:40 48° S 22:33:42 10° ESE
STARLINK-1363 3.0 22:27:58 10° W 22:31:00 48° S 22:34:02 10° ESE
Cosmos 2227 4.2 22:25:29 10° NW 22:31:15 77° WSW 22:37:01 10° SSE
STARLINK-1337 3.0 22:28:20 10° W 22:31:23 48° S 22:34:25 10° ESE
STARLINK-1342 3.0 22:28:40 10° W 22:31:42 48° S 22:34:44 10° ESE
STARLINK-1364 3.0 22:29:00 10° W 22:32:02 48° S 22:35:04 10° ESE
STARLINK-1376 3.0 22:29:20 10° W 22:32:22 48° S 22:35:24 10° ESE
STARLINK-1360 3.0 22:29:40 10° W 22:32:43 48° S 22:35:45 10° ESE
STARLINK-1361 3.0 22:30:01 10° W 22:33:03 48° S 22:36:06 10° ESE
SL-16 R/B 2.7 22:26:59 10° SSE 22:33:07 77° ENE 22:39:21 10° NNW
STARLINK-1367 3.1 22:30:17 10° W 22:33:21 48° S 22:36:25 10° ESE
Cosmos 2298 Rocket 4.1 22:28:20 10° NNW 22:33:36 66° WSW 22:38:52 10° SSE
STARLINK-1366 3.0 22:30:40 10° W 22:33:42 48° S 22:36:44 10° ESE
STARLINK-1338 3.5 22:30:58 10° W 22:34:51 57° S 22:38:46 10° ESE
STARLINK-66 4.2 22:34:44 15° SSW 22:36:33 25° SSE 22:39:15 10° E
Cosmos 1844 Rocket 4.1 22:32:38 10° NNW 22:37:57 41° NE 22:43:13 10° ESE
GEOS 3 Rocket 3.7 22:33:22 10° SE 22:38:37 89° SW 22:43:59 10° NW
STARLINK-1316 4.5 22:37:16 15° S 22:38:41 20° SSE 22:41:03 10° ESE
STARLINK-1257 4.5 22:38:07 15° S 22:39:35 20° SSE 22:41:58 10° E
STARLINK-52 3.5 22:37:25 10° W 22:40:25 36° SSW 22:43:24 10° SE
STARLINK-1256 4.5 22:39:03 15° S 22:40:33 20° SSE 22:42:55 10° ESE
IRAS Rocket 4.4 22:35:51 10° S 22:41:14 59° WSW 22:46:42 10° NNW
CZ-4 R/B 4.2 22:36:36 10° N 22:41:16 56° WNW 22:45:38 11° SW
STARLINK-1213 4.5 22:39:55 15° S 22:41:25 20° SSE 22:43:48 10° E
Cosmos 1758 Rocket 3.7 22:38:19 13° SSW 22:42:11 71° WNW 22:46:39 10° N
STARLINK-1263 4.4 22:40:46 15° S 22:42:18 20° SSE 22:44:43 10° E
STARLINK-1371 3.5 22:38:36 10° W 22:42:27 56° S 22:46:19 10° ESE
STARLINK-1259 4.4 22:41:40 15° S 22:43:14 21° SSE 22:45:39 10° E
STARLINK-1265 4.4 22:42:01 15° S 22:43:37 21° SSE 22:46:05 10° E
STARLINK-1285 4.4 22:42:31 15° S 22:44:06 21° SSE 22:46:32 10° E
STARLINK-1296 4.4 22:44:15 15° SSW 22:45:54 21° SSE 22:48:21 10° E
SL-16 R/B 3.7 22:41:46 10° SSE 22:46:24 27° ESE 22:51:03 10° NE
STARLINK-1341 3.5 22:42:50 10° W 22:46:42 56° S 22:50:32 10° ESE
STARLINK-1260 4.4 22:45:07 14° SSW 22:46:47 21° SSE 22:49:16 10° E
STARLINK-1318 4.4 22:45:59 14° SSW 22:47:41 22° SSE 22:50:10 10° E
STARLINK-75 4.1 22:45:38 14° SSW 22:47:45 26° SSE 22:50:32 10° E
USA 215 4.1 22:42:24 10° S 22:47:55 28° SW 22:53:28 10° WNW
Cosmos 2208 Rocket 4.1 22:43:07 12° SSW 22:48:01 82° ESE 22:53:27 10° NNE
CZ-2D R/B 2.9 22:43:12 10° NNE 22:48:12 43° E 22:53:09 10° S
STARLINK-1275 4.3 22:46:52 14° SSW 22:48:36 22° SSE 22:51:05 10° E
STARLINK-1309 4.3 22:47:43 14° SSW 22:49:28 22° SSE 22:51:59 10° E
STARLINK-1282 4.3 22:48:35 14° SSW 22:50:22 22° SSE 22:52:53 10° E
STARLINK-1313 4.2 22:49:31 14° SSW 22:51:26 24° SSE 22:54:02 10° E
STARLINK-1374 3.6 22:47:56 10° W 22:51:51 56° S 22:55:46 10° ESE
STARLINK-1279 4.2 22:50:25 14° SSW 22:52:21 24° SSE 22:54:58 10° E
STARLINK-1298 4.3 22:51:09 14° SSW 22:53:01 23° SSE 22:55:34 10° E
STARLINK-1293 4.3 22:52:02 14° SSW 22:53:57 23° SSE 22:56:30 10° E
Cosmos-2242 3.8 22:50:04 10° NNW 22:53:59 36° W 22:57:34 12° SSW
USA 81 4.4 22:49:37 12° SSW 22:54:29 55° WNW 22:59:42 10° N
STARLINK-1297 4.5 22:52:45 13° SSW 22:55:15 25° SSE 22:58:16 10° E
MOZ.5/SAFIR/RUBIN 5/SL-8 3.8 22:50:53 10° S 22:55:30 69° WSW 23:00:11 10° NNW
STARLINK-1255 4.2 22:53:47 14° SSW 22:55:45 23° SSE 22:58:19 10° E
STARLINK-22 4.2 22:53:52 13° SSW 22:56:02 25° SSE 22:58:45 10° E
STARLINK-1339 3.6 22:52:14 10° W 22:56:09 56° S 23:00:04 10° ESE
Cosmos 2221 2.8 22:52:33 10° N 22:56:56 69° ENE 23:01:18 10° SSE
STARLINK-1444 4.4 22:56:25 10° WSW 22:56:39 11° WSW 22:56:39 11° WSW
STARLINK 1040 3.0 22:56:01 10° WSW 22:58:23 36° S 23:00:47 10° E
STARLINK-1311 4.0 22:56:51 13° SSW 22:58:47 25° SSE 23:01:17 10° E
SeaSat 1 4.1 22:55:57 10° NNE 23:00:15 31° NW 23:04:33 10° W
STARLINK-1377 3.6 22:56:33 10° W 23:00:28 55° S 23:04:24 10° ESE
Cosmos 1953 Rocket 3.6 22:56:23 12° SSW 23:00:32 79° WNW 23:04:56 10° N
GP-B 3.1 22:56:32 10° N 23:01:01 82° W 23:05:28 10° S
Cosmos 1842 Rocket 3.6 22:59:03 10° NNW 23:03:35 89° WSW 23:08:02 10° S
STARLINK-1353 3.6 23:00:52 10° W 23:04:47 55° S 23:08:42 10° ESE
Cosmos 1315 Rocket 2.8 23:01:02 10° NNW 23:04:59 84° ENE 23:08:57 10° SSE
STARLINK-42 3.8 23:03:38 12° SW 23:06:05 30° SSE 23:08:48 10° E
Cosmos 540 Rocket 3.6 23:01:19 11° SSW 23:06:22 77° WNW 23:11:31 10° NNE
CZ-4C R/B 3.7 23:03:14 10° S 23:07:37 61° WSW 23:12:02 10° NNW
FALCON 9 DEB 3.6 23:04:42 10° W 23:07:55 37° SSW 23:11:09 10° SE
STARLINK-60 4.4 23:05:46 10° WSW 23:08:03 18° SSW 23:10:20 10° SSE
Cosmos 2360 Rocket 4.2 23:05:07 10° SE 23:08:56 19° E 23:12:48 10° ENE
STARLINK-1375 3.6 23:05:13 10° W 23:09:07 54° S 23:13:02 10° ESE
STARLINK-34 4.3 23:07:19 12° SSW 23:09:17 21° SSE 23:11:39 10° E
Helios 1B rocket 3.7 23:06:10 10° N 23:09:53 32° WNW 23:13:35 10° SW
STARLINK-41 3.8 23:07:32 11° SW 23:10:00 29° SSE 23:12:39 10° E
STARLINK-1272 4.2 23:08:33 11° SW 23:11:32 30° SSE 23:14:40 10° E
STARLINK-62 4.2 23:10:58 12° SSW 23:13:06 23° SSE 23:15:34 10° E
Cosmos 2074 Rocket 4.1 23:07:00 10° S 23:13:18 85° E 23:19:38 10° NNE
STARLINK-1350 3.6 23:09:32 10° W 23:13:26 53° S 23:17:20 10° ESE
Cosmos 1980 Rocket 2.3 23:10:10 10° SW 23:15:49 85° NW 23:21:33 10° NE
STARLINK-1307 4.2 23:12:40 10° SW 23:15:58 32° SSE 23:19:19 10° E
STARLINK-1352 3.7 23:13:55 10° W 23:17:50 52° S 23:21:44 10° ESE
CZ-4B R/B 4.1 23:13:20 10° NNE 23:18:30 55° ESE 23:23:40 10° S
STARLINK-1290 4.2 23:16:07 10° SW 23:19:28 33° SSE 23:22:50 10° E
Cosmos 2058 4.1 23:15:57 10° SSE 23:19:53 40° E 23:23:50 10° NNE
Meteor 1-29 4.4 23:18:16 10° N 23:21:11 28° WNW 23:24:05 10° WSW
STARLINK-1368 3.7 23:18:19 10° W 23:22:13 51° SSW 23:26:08 10° ESE
Cosmos 1455 4.4 23:20:30 10° NW 23:22:17 13° W 23:24:05 10° WSW
STARLINK-1317 4.2 23:22:06 10° SW 23:25:43 37° SSE 23:29:21 10° E
STARLINK-1369 3.7 23:22:03 10° W 23:25:54 50° SSW 23:29:44 10° ESE
ADEOS II 3.2 23:21:40 10° NNE 23:26:37 39° E 23:31:32 10° SSE
Cosmos 2369 4.3 23:21:08 10° SW 23:26:40 53° NW 23:32:15 10° NNE
Cosmos 2263 Rocket 2.7 23:22:11 10° NW 23:27:22 39° WSW 23:32:29 10° S
Meteor 1-11 4.4 23:21:50 10° SSW 23:27:24 69° WNW 23:33:01 10° NNE
USA 229 DEB 4.2 23:20:44 10° NW 23:27:30 45° SW 23:34:34 10° SSE
USA 229 4.2 23:20:51 10° NW 23:27:36 45° SW 23:34:40 10° SSE
NOSS 2-1 (C) 4.3 23:25:01 10° S 23:28:01 29° SE 23:31:19 10° ENE
NOSS 3-1 (C) 4.4 23:21:31 10° NW 23:28:22 43° SW 23:36:12 10° S
STARLINK-1372 3.7 23:26:29 10° W 23:30:19 49° SSW 23:34:10 10° ESE
IRS-1D 4.3 23:25:16 10° NNE 23:30:26 50° E 23:35:29 10° S
STARLINK-1274 4.0 23:27:47 10° SW 23:31:03 35° SSE 23:34:20 10° E
STARLINK-43 3.5 23:27:58 10° WSW 23:31:33 52° S 23:35:09 10° E
STARLINK-55 3.5 23:28:54 10° WSW 23:31:56 40° SSE 23:34:59 10° E
NOSS 2-1 (D) 4.2 23:29:49 10° SSW 23:32:53 32° SE 23:36:17 10° ENE
AQUA 4.1 23:29:02 10° NNE 23:33:49 70° ESE 23:38:34 10° S
STARLINK-1291 4.0 23:30:36 10° SW 23:34:03 37° SSE 23:37:32 10° E
STARLINK-1378 3.7 23:30:53 10° W 23:34:44 48° SSW 23:38:34 10° ESE
NPP 3.8 23:29:42 10° NNE 23:35:09 82° ESE 23:40:33 10° SSW
NOSS 3-1 (A) 4.2 23:29:35 10° NW 23:36:38 53° SW 23:44:46 10° SSE
ARIANE 5 R/B 4.1 23:32:28 10° NNE 23:36:54 30° E 23:41:17 10° SSE
STARLINK-1264 4.0 23:33:52 10° SW 23:37:20 38° SSE 23:40:50 10° E
UNK 4.4 23:34:05 10° SSW 23:38:23 39° W 23:42:43 10° NNW
Cosmos 2184 Rocket 4.1 23:32:15 10° SSW 23:38:24 72° WNW 23:44:37 10° N
SL-4 R/B 3.6 23:35:17 10° W 23:38:55 21° SW 23:42:28 10° SSE
CZ-4C R/B 2.9 23:33:42 10° WSW 23:39:10 61° NNW 23:45:50 10° NE
STARLINK-1379 3.8 23:35:22 10° W 23:39:12 47° SSW 23:43:02 10° ESE
Meteor 1-28 Rocket 4.4 23:35:39 10° SE 23:39:13 43° ENE 23:42:47 10° N
STARLINK-1267 4.0 23:37:11 10° SW 23:40:40 39° SSE 23:44:12 10° E
STARLINK-29 4.4 23:38:28 10° WSW 23:40:49 19° SSW 23:43:08 10° SSE
Cosmos 1844 4.1 23:35:39 10° NNW 23:41:29 74° NE 23:47:18 10° SE
STARLINK-1329 3.8 23:39:07 10° W 23:42:57 46° SSW 23:46:47 10° ESE
STARLINK-28 3.4 23:40:20 10° WSW 23:43:25 44° S 23:46:30 10° E
